Terminal Aerodrome Forecast
Issued by NWS Wilmington, OH

Home | Current Version | Previous Version | Text Only | Print | Product List | Glossary On
Versions: 1 2 3 4 5 6 7 8 9 10 11 12 13 14 15 16 17 18 19 20 21 22 23 24 25 26 27 28 29 30 31
000
FTUS41 KILN 281100
TAFCVG
TAF
KCVG 281125Z 2812/2918 24003KT P6SM SCT035 BKN100
     FM281600 21010KT P6SM FEW050 BKN100
     FM282300 19008KT P6SM SCT050
     FM291000 20012KT P6SM BKN040
     FM291500 21012G18KT P6SM OVC035=

USA.gov is the U.S. government's official web portal to all federal, state and local government web resources and services.